Location: Bovenkerk
(52.2915°N, 4.8336°E)
Time: 16:41:00
(UTC+00:00)

IRIDIUM 103 - Pass Details

Date: 09 April 2020
Orbit: 776 x 779 km, 86.4° (Epoch: 02 June)

Event Time Altitude Azimuth Distance (km) Brightness Sun altitude
Rises 18:55:02 0° 354° (N) 3,279 7.9 -4.6°
Reaches altitude 10° 18:57:24 10° 354° (N) 2,346 7.2 -4.9°
Maximum altitude 19:02:39 84° 268° (W) 791 4.5 -5.7°
Drops below altitude 10° 19:07:53 10° 180° (S) 2,327 6.6 -6.4°
Sets 19:10:13 0° 180° (S) 3,249 7.3 -6.8°
